Dunkirk, NY

2:50 PM EDT on July 20, 2017 (GMT -0400)
Chautauqua County-Dunkirk

Weather History for KDKK - September, 2014

Change the Weather History Date:

Wednesday, September 10, 2014

  Actual Average Record
Temperature  
Mean Temperature 72 °F -  
Max Temperature 80 °F 75 °F 92 °F (1955)
Min Temperature 66 °F 56 °F 41 °F (1926)
Cooling Degree Days 8    
Growing Degree Days 22 (Base 50)    
Moisture  
Dew Point 63 °F    
Average Humidity 73    
Maximum Humidity 81    
Minimum Humidity 62    
Precipitation  
Precipitation 0.05 in - - ()
Sea Level Pressure  
Sea Level Pressure 29.89 in    
Wind  
Wind Speed 16 mph (South)    
Max Wind Speed 31 mph    
Max Gust Speed 47 mph    
Visibility 10 miles    
Events Rain    
Averages and records for this station are not official NWS values.
T = Trace of Precipitation, MM = Missing Value Source: NWS Daily Summary

Daily Weather History Graph

Daily Weather History Graph

Search for Another Location

Airport or City:

Trip Planner

Search our weather history database for the weather conditions in past years. The results will help you decide how hot, cold, wet, or windy it might be!

Date:

Astronomy

Sep. 10, 2014 Rise Set
Actual Time 6:51 AM EDT 7:35 PM EDT
Civil Twilight 6:23 AM EDT 8:04 PM EDT
Nautical Twilight 5:49 AM EDT 8:37 PM EDT
Astronomical Twilight 5:14 AM EDT 9:12 PM EDT
Moon 8:29 PM EDT (9/10) 8:40 AM EDT (9/10)
Length of Visible Light 13h 40m
Length of Day
12h 44m
Waning Gibbous, 96% of the Moon is Illuminated
Sep 10
Waning Gibbous
Sep 15
Last Quarter
Sep 24
New
Oct 1
First Quarter
Oct 8
Full

Hourly Weather History & Observations

Time (EDT) Temp. Dew Point Humidity Pressure Visibility Wind Dir Wind Speed Gust Speed Precip Events Conditions
12:53 AM 66.9 °F 59.0 °F 76% 30.02 in 10.0 mi South 15.0 mph 24.2 mph N/A   Clear
1:53 AM 66.9 °F 60.1 °F 79% 30.02 in 10.0 mi South 13.8 mph 24.2 mph N/A   Scattered Clouds
2:53 AM 66.9 °F 60.1 °F 79% 30.01 in 10.0 mi South 17.3 mph 23.0 mph N/A   Clear
3:53 AM 66.9 °F 60.1 °F 79% 30.00 in 10.0 mi South 11.5 mph 23.0 mph N/A   Partly Cloudy
4:53 AM 66.0 °F 60.1 °F 81% 30.01 in 10.0 mi South 10.4 mph 24.2 mph N/A   Clear
6:53 AM 66.9 °F 60.1 °F 79% 30.00 in 10.0 mi South 8.1 mph - N/A   Mostly Cloudy
7:53 AM 68.0 °F 61.0 °F 78% 29.99 in 10.0 mi South 9.2 mph 23.0 mph N/A   Scattered Clouds
8:53 AM 70.0 °F 62.1 °F 76% 29.98 in 10.0 mi South 12.7 mph 24.2 mph N/A   Partly Cloudy
9:53 AM 72.0 °F 63.0 °F 73% 29.98 in 10.0 mi South 21.9 mph - N/A   Scattered Clouds
10:53 AM 73.0 °F 64.0 °F 73% 29.97 in 10.0 mi South 19.6 mph 24.2 mph N/A   Mostly Cloudy
11:53 AM 75.9 °F 66.0 °F 71% 29.95 in 10.0 mi South 11.5 mph - N/A   Mostly Cloudy
12:53 PM 78.1 °F 66.0 °F 66% 29.93 in 10.0 mi South 21.9 mph - N/A   Clear
1:53 PM 79.0 °F 66.0 °F 64% 29.91 in 10.0 mi South 11.5 mph 26.5 mph N/A   Clear
2:53 PM 79.0 °F 64.9 °F 62% 29.88 in 10.0 mi South 18.4 mph 26.5 mph N/A   Clear
3:53 PM 79.0 °F 64.9 °F 62% 29.84 in 10.0 mi South 16.1 mph 24.2 mph N/A   Clear
4:53 PM 78.1 °F 64.9 °F 64% 29.80 in 10.0 mi South 15.0 mph 24.2 mph N/A   Clear
5:53 PM 77.0 °F 64.9 °F 66% 29.77 in 10.0 mi South 16.1 mph 24.2 mph N/A   Mostly Cloudy
6:53 PM 77.0 °F 64.9 °F 66% 29.73 in 10.0 mi South 21.9 mph 35.7 mph N/A   Scattered Clouds
7:53 PM 73.9 °F 66.0 °F 76% 29.71 in 10.0 mi SSE 26.5 mph 39.1 mph 0.00 in Rain Light Rain
8:53 PM 75.0 °F 64.9 °F 71% 29.71 in 10.0 mi South 31.1 mph 39.1 mph 0.00 in   Overcast
9:53 PM 72.0 °F 66.0 °F 81% 29.69 in 10.0 mi South 24.2 mph 39.1 mph 0.04 in Rain Light Rain
11:53 PM 72.0 °F 66.0 °F 81% 29.64 in 10.0 mi South 29.9 mph 47.2 mph 0.01 in Rain Light Rain